Showing default

SELENE, 69020

AKA "SELENE" on Space-Track | Orbit data source: Space-Track

SELENE, 69020 is a Greek payload satellite in SSO that was launched on Sun, 03 May 2026 UTC via an FALCON 9 launch vehicle from the Air Force Western Test Range (AFWTR). Payload-class satellites include a variety of spacecraft equipped with specific instruments for various scientific and technological missions. These include communications satellites like Starlink; space stations such as the ISS; scientific satellites like the Hubble; Earth observation satellites from companies like Planet Labs, Umbra, and HawkEye 360; GPS; miniature CubeSats for education and research; and military/defense satellites.

Loading next visibility...
Identifier
69020, 2026-100AS
Orbit
SSO
Country
Flag of GRGR / GREC
Related business
Manufacturer
EMTECH
Mission
Operational Commercial Technology
Bus & Motor
CUBESAT 8U, Unknown motor
Mass
~8 kg wet, ~8 kg dry
Launch date (UTC)
2026-05-03 (5 months ago)
Launch vehicle
FALCON 9
Launch site
Air Force Western Test Range (AFWTR)
Object type
Payload
Rocket body
Debris
Shape & HBR
Box, 0.2 m
Radar Cross Section
0.080 m², Medium (>0.1 m² and < 1m²)

Expand to show TLE details & history
Last TLE update: 21 hours ago

TLE from 21 hours ago
0 SELENE
1 69020U 26100AS  26265.71717044  .00003809  00000-0  17606-3 0  9991
2 69020  97.3902 161.6498 0004542  25.3068 334.8389 15.20759400 21625
Epoch: 2026-09-22T17:12Z
TLE epoch observation values (Epoch: 2026-09-22T17:12:43.526Z)
Latitude
-0.00002°
Longitude
-98.1102°
Altitude
503.811 km
Speed
7.614 km/s
True Right ascension
10h 46m 35s
True Declination
0° 00' 00"
Sunlit
Object was in daylight at epoch
Visualization orbit readout
Latitude
Unknown
Longitude
Unknown
Altitude
Unknown
Speed
Unknown
Apparent Right ascension
Unknown
Apparent Declination
Unknown
Sunlit
N/A
Visualization observer readout
Local Sidereal Time
07:33:20
Azimuth
Unknown
Elevation
Unknown
Doppler factor
Unknown
Orbital elements
Apogee altitude
503.637 km
Perigee altitude
497.389 km
Semi-major axis
6,878.65 km
Eccentricity
0.00045
Inclination
97.3902°
RAAN
161.6498°
Arg. of periapsis
25.3068°
True anomaly
334.81676°
Mean anomaly
334.8389°
Eccentric anomaly
334.82783°
Mean motion
3.80442 °/min
Orbital period
94.63 mins
BSTAR
0.00017606
Loading maneuver chart data...
Computing Atmospheric mass density...
Loading historical data...
Loading historical data...
Loading historical data...
Loading historical data...
Loading historical data...
Loading historical data...
Loading historical data...

Documentation

Showing up to 5 results
|